Tracking 30918 objects as of 2-Jul-2025
HD Live streaming from Space Station
objects crossing your sky now

STARLINK-4615

Track STARLINK-4615 now!
10-day predictions
STARLINK-4615 is classified as:


NORAD ID: 53620
Int'l Code: 2022-104AJ
Perigee: 546.0 km
Apogee: 547.7 km
Inclination: 53.2 °
Period: 95.4 minutes
Semi major axis: 6917 km
RCS: Unknown
Launch date: August 28, 2022
Source: United States (US)
Launch site: AIR FORCE EASTERN TEST RANGE (AFETR)
Your satellite tracking list
FENGYUN 1C DEB
Track 1 satellite(s)




NASA's NSSDC Master Catalog

Two Line Element Set (TLE):
1 53620U 22104AJ  25182.68181073 -.00001016  00000-0 -45765-4 0  9998
2 53620  53.2177 280.7764 0001215  90.6759 269.4373 15.08845224157851
Source of the keplerian elements: AFSPC